Weather History for Corning, AR

Change the Weather History Date:

Sunday, October 9, 2011

  Actual Average (KARG) Record (KARG)
Temperature  
Mean Temperature 68 °F -  
Max Temperature 82 °F 71 °F 86 °F (2010)
Min Temperature 53 °F 50 °F 30 °F (2000)
Cooling Degree Days 2    
Growing Degree Days 18 (Base 50)    
Moisture  
Dew Point 52 °F    
Average Humidity 63    
Maximum Humidity 94    
Minimum Humidity 28    
Precipitation  
Precipitation 0.02 in - - ()
Sea Level Pressure  
Sea Level Pressure 30.21 in    
Wind  
Wind Speed 8 mph (ESE)    
Max Wind Speed 16 mph    
Max Gust Speed 23 mph    
Averages and records for this station are not official NWS values.
T = Trace of Precipitation, MM = Missing Value Source: NWS Daily Summary

Daily Weather History Graph

Daily Weather History Graph

Search for Another Location

Airport:

Trip Planner

Search our weather history database for the weather conditions in past years. The results will help you decide how hot, cold, wet, or windy it might be!

Date:

Astronomy

Oct. 09, 2011 Rise Set
Actual Time 7:04 AM CDT 6:34 PM CDT
Civil Twilight 6:38 AM CDT 7:00 PM CDT
Nautical Twilight 6:08 AM CDT 7:30 PM CDT
Astronomical Twilight 5:38 AM CDT 8:00 PM CDT
Moon 5:10 PM CDT (10/9) 4:51 AM CDT (10/9)
Length of Visible Light 12h 22m
Length of Day
11h 30m
Waxing Gibbous, 95% of the Moon is Illuminated
Oct 9
Waxing Gibbous
Oct 11
Full
Oct 19
Last Quarter
Oct 26
New
Nov 2
First Quarter

Hourly Weather History & Observations

Time (CDT) Temp. Dew Point Humidity Pressure Visibility Wind Dir Wind Speed Gust Speed Precip Events Conditions
12:15 AM 59.0 °F 55.4 °F 88% 30.24 in - ESE 8.1 mph - N/A   Unknown
12:35 AM 59.0 °F 55.4 °F 88% 30.23 in - East 8.1 mph - N/A   Unknown
12:55 AM 59.0 °F 53.6 °F 82% 30.24 in - ESE 8.1 mph - N/A   Unknown
1:15 AM 57.2 °F 53.6 °F 88% 30.23 in - East 8.1 mph - N/A   Unknown
1:35 AM 59.0 °F 53.6 °F 82% 30.24 in - ESE 6.9 mph - N/A   Unknown
1:55 AM 60.8 °F 55.4 °F 82% 30.24 in - ESE 4.6 mph - N/A   Clear
2:15 AM 59.0 °F 53.6 °F 82% 30.24 in - SE 5.8 mph - N/A   Clear
2:35 AM 59.0 °F 53.6 °F 82% 30.24 in - SE 4.6 mph - N/A   Clear
2:55 AM 57.2 °F 53.6 °F 88% 30.23 in - SE 5.8 mph - N/A   Unknown
3:15 AM 59.0 °F 53.6 °F 82% 30.23 in - ESE 5.8 mph - N/A   Clear
3:35 AM 55.4 °F 53.6 °F 94% 30.22 in - ESE 6.9 mph - N/A   Unknown
3:55 AM 57.2 °F 53.6 °F 88% 30.23 in - East 3.5 mph - N/A   Unknown
4:15 AM 59.0 °F 53.6 °F 82% 30.23 in - ENE 5.8 mph - N/A   Clear
4:35 AM 57.2 °F 53.6 °F 88% 30.23 in - NE 5.8 mph - N/A   Unknown
4:55 AM 57.2 °F 53.6 °F 88% 30.23 in - ENE 4.6 mph - N/A   Unknown
5:15 AM 57.2 °F 53.6 °F 88% 30.24 in - NE 4.6 mph - N/A   Unknown
5:55 AM 53.6 °F 51.8 °F 94% 30.24 in - ENE 6.9 mph - N/A   Unknown
6:15 AM 55.4 °F 53.6 °F 94% 30.25 in - NE 3.5 mph - N/A   Unknown
6:35 AM 55.4 °F 53.6 °F 94% 30.25 in - ENE 4.6 mph - N/A   Unknown
6:55 AM 55.4 °F 51.8 °F 88% 30.25 in - ENE 4.6 mph - N/A   Unknown
7:15 AM 55.4 °F 51.8 °F 88% 30.25 in - ENE 4.6 mph - N/A   Unknown
7:35 AM 55.4 °F 51.8 °F 88% 30.26 in - Calm Calm - N/A   Unknown
7:55 AM 57.2 °F 53.6 °F 88% 30.26 in - East 5.8 mph - N/A   Unknown
8:15 AM 60.8 °F 57.2 °F 88% 30.26 in - ESE 9.2 mph - N/A   Unknown
8:35 AM 62.6 °F 57.2 °F 82% 30.27 in - ESE 6.9 mph - N/A   Clear
8:55 AM 66.2 °F 55.4 °F 68% 30.27 in - SE 10.4 mph - N/A   Clear
9:35 AM 68.0 °F 53.6 °F 60% 30.28 in - SE 10.4 mph 17.3 mph N/A   Clear
9:55 AM 71.6 °F 53.6 °F 53% 30.28 in - SE 12.7 mph - N/A   Clear
10:15 AM 71.6 °F 53.6 °F 53% 30.28 in - SSE 11.5 mph - N/A   Clear
10:35 AM 71.6 °F 53.6 °F 53% 30.28 in - SSE 9.2 mph - N/A   Clear
10:55 AM 73.4 °F 53.6 °F 50% 30.27 in - SSE 9.2 mph - N/A   Clear
11:15 AM 73.4 °F 55.4 °F 53% 30.27 in - South 9.2 mph - N/A   Clear
11:35 AM 75.2 °F 55.4 °F 50% 30.26 in - ESE 6.9 mph - N/A   Clear
11:55 AM 75.2 °F 53.6 °F 47% 30.25 in - SE 9.2 mph - N/A   Clear
12:15 PM 77.0 °F 53.6 °F 44% 30.23 in - ESE 8.1 mph - N/A   Clear
12:55 PM 77.0 °F 53.6 °F 44% 30.22 in - SE 10.4 mph 18.4 mph N/A   Clear
1:15 PM 78.8 °F 50.0 °F 36% 30.20 in - ESE 12.7 mph 17.3 mph N/A Rain Light Rain
1:35 PM 80.6 °F 48.2 °F 32% 30.19 in - East 12.7 mph 19.6 mph N/A Rain Light Rain
2:15 PM 80.6 °F 48.2 °F 32% 30.17 in - ESE 15.0 mph 18.4 mph N/A Rain Light Rain
2:35 PM 80.6 °F 46.4 °F 30% 30.16 in - ESE 12.7 mph 19.6 mph N/A Rain Light Rain
2:55 PM 80.6 °F 46.4 °F 30% 30.16 in - ESE 11.5 mph - 0.01 in Rain Light Rain
3:15 PM 80.6 °F 46.4 °F 30% 30.15 in - ESE 10.4 mph 21.9 mph N/A Rain Light Rain
3:35 PM 82.4 °F 46.4 °F 28% 30.15 in - East 13.8 mph 18.4 mph N/A Rain Light Rain
3:55 PM 80.6 °F 46.4 °F 30% 30.14 in - ESE 16.1 mph - 0.01 in Rain Light Rain
4:15 PM 80.6 °F 46.4 °F 30% 30.13 in - ESE 13.8 mph 23.0 mph N/A Rain Light Rain
4:35 PM 80.6 °F 46.4 °F 30% 30.13 in - East 13.8 mph 18.4 mph N/A Rain Light Rain
5:15 PM 78.8 °F 48.2 °F 34% 30.12 in - ESE 10.4 mph - N/A Rain Light Rain
5:55 PM 75.2 °F 48.2 °F 38% 30.12 in - ESE 9.2 mph - N/A   Clear
6:35 PM 69.8 °F 48.2 °F 46% 30.12 in - East 8.1 mph - N/A   Clear
6:55 PM 68.0 °F 48.2 °F 49% 30.12 in - East 10.4 mph - N/A   Unknown
7:15 PM 68.0 °F 48.2 °F 49% 30.13 in - East 8.1 mph - N/A   Unknown
7:35 PM 66.2 °F 48.2 °F 52% 30.13 in - East 8.1 mph - N/A   Unknown
7:55 PM 66.2 °F 48.2 °F 52% 30.14 in - East 6.9 mph - N/A   Unknown
8:15 PM 64.4 °F 48.2 °F 56% 30.14 in - East 5.8 mph - N/A   Unknown
8:35 PM 64.4 °F 48.2 °F 56% 30.14 in - East 8.1 mph - N/A   Unknown
8:55 PM 62.6 °F 48.2 °F 59% 30.14 in - ENE 8.1 mph - N/A   Unknown
9:15 PM 62.6 °F 48.2 °F 59% 30.14 in - ENE 8.1 mph - N/A   Unknown
9:35 PM 62.6 °F 46.4 °F 55% 30.14 in - ENE 6.9 mph - N/A   Unknown
9:55 PM 62.6 °F 48.2 °F 59% 30.14 in - ENE 6.9 mph - N/A   Unknown
10:15 PM 62.6 °F 46.4 °F 55% 30.14 in - NE 3.5 mph - N/A   Unknown
10:35 PM 62.6 °F 46.4 °F 55% 30.14 in - ENE 6.9 mph - N/A   Unknown
10:55 PM 62.6 °F 46.4 °F 55% 30.14 in - ENE 4.6 mph - N/A   Clear
11:15 PM 62.6 °F 46.4 °F 55% 30.14 in - ENE 3.5 mph - N/A   Clear
11:35 PM 59.0 °F 46.4 °F 63% 30.14 in - East 4.6 mph - N/A   Clear
11:55 PM 59.0 °F 46.4 °F 63% 30.14 in - East 4.6 mph - N/A   Clear